Location: Unspecified
(17.6330°N, 0.0000°E)
Time: 13:19:57
(UTC+00:00)

Courier 1B Rocket - Pass Details

Date: 29 June 2019
Orbit: 920 x 1202 km, 28.3° (Epoch: 19 August)

Event Time Altitude Azimuth Distance (km) Brightness Sun altitude
Exits shadow 04:09:54 - 294° (WNW) 3,755 7.7 -17.3°
Reaches altitude 10° 04:12:23 10° 301° (WNW) 2,964 7.3 -16.8°
Maximum altitude 04:18:59 36° 6° (N) 1,593 6.5 -15.4°
Drops below altitude 10° 04:25:09 10° 72° (ENE) 2,770 8.7 -14.2°
Sets 04:27:58 0° 80° (E) 3,678 9.4 -13.6°
